Smyrna, TN

5:50 AM CST on December 07, 2019 (GMT -0600)
Smyrna

Weather History for KMQY - October, 2019

Change the Weather History Date:

Sunday, October 13, 2019

  Actual Average Record
Temperature  
Mean Temperature 52 °F -  
Max Temperature 70 °F 68 °F 83 °F (2008)
Min Temperature 35 °F 50 °F 29 °F (2006)
Degree Days  
Heating Degree Days 12    
Growing Degree Days 2 (Base 50)    
Moisture  
Dew Point 39 °F    
Average Humidity 73    
Maximum Humidity 100    
Minimum Humidity 26    
Precipitation  
Precipitation 0.00 in - - ()
Sea Level Pressure  
Sea Level Pressure 30.09 in    
Wind  
Wind Speed 2 mph (South)    
Max Wind Speed 7 mph    
Max Gust Speed -    
Visibility 10 miles    
Events      
Averages and records for this station are not official NWS values.
T = Trace of Precipitation, MM = Missing Value Source: NWS Daily Summary

Daily Weather History Graph

Daily Weather History Graph

Search for Another Location

Airport or City:

Astronomy

Oct. 13, 2019 Rise Set
Actual Time 6:50 AM CDT 6:13 PM CDT
Civil Twilight 6:25 AM CDT 6:38 PM CDT
Nautical Twilight 5:55 AM CDT 7:08 PM CDT
Astronomical Twilight 5:25 AM CDT 7:38 PM CDT
Moon 6:33 PM CDT (10/13) 6:27 AM CDT (10/13)
Length of Visible Light 12h 13m
Length of Day
11h 22m
Full, 100% of the Moon is Illuminated
Oct 13
Full
Oct 13
Full
Oct 21
Last Quarter
Oct 27
New
Nov 4
First Quarter

Hourly Weather History & Observations

Time (CDT) Temp. Windchill Dew Point Humidity Pressure Visibility Wind Dir Wind Speed Gust Speed Precip Events Conditions
12:56 AM 39.9 °F - 39.0 °F 97% 30.11 in 10.0 mi Calm Calm - N/A   Clear
1:56 AM 39.0 °F - 37.9 °F 96% 30.10 in 10.0 mi Calm Calm - N/A   Clear
2:56 AM 37.9 °F 35.5 °F 37.9 °F 100% 30.10 in 10.0 mi SE 3.5 mph - N/A   Clear
3:56 AM 37.9 °F - 37.0 °F 97% 30.09 in 10.0 mi Calm Calm - N/A   Clear
4:56 AM 37.0 °F - 36.0 °F 96% 30.09 in 10.0 mi Calm Calm - N/A   Clear
5:56 AM 36.0 °F - 35.1 °F 97% 30.11 in 5.0 mi Calm Calm - N/A   Clear
6:13 AM 35.6 °F - 35.6 °F 100% 30.10 in 2.5 mi Calm Calm - N/A   Clear
6:22 AM 35.6 °F - 35.6 °F 100% 30.10 in 9.0 mi Calm Calm - N/A   Clear
6:56 AM 35.1 °F - 35.1 °F 100% 30.13 in 10.0 mi Calm Calm - N/A   Clear
7:56 AM 39.0 °F 36.8 °F 37.9 °F 96% 30.14 in 10.0 mi SSE 3.5 mph - N/A   Clear
8:56 AM 46.0 °F - 43.0 °F 89% 30.15 in 10.0 mi Calm Calm - N/A   Clear
9:56 AM 53.1 °F - 45.0 °F 74% 30.14 in 10.0 mi SE 4.6 mph - N/A   Clear
10:56 AM 59.0 °F - 41.0 °F 51% 30.13 in 10.0 mi Calm Calm - N/A   Clear
11:56 AM 62.1 °F - 39.9 °F 44% 30.12 in 10.0 mi Variable 3.5 mph - N/A   Clear
12:56 PM 66.0 °F - 39.9 °F 38% 30.10 in 10.0 mi WNW 4.6 mph - N/A   Clear
1:56 PM 68.0 °F - 39.9 °F 36% 30.07 in 10.0 mi SSE 5.8 mph - N/A   Clear
2:56 PM 69.1 °F - 37.9 °F 32% 30.04 in 10.0 mi SE 6.9 mph - N/A   Clear
3:56 PM 70.0 °F - 37.9 °F 31% 30.03 in 10.0 mi South 6.9 mph - N/A   Clear
4:56 PM 69.1 °F - 33.1 °F 26% 30.04 in 10.0 mi WSW 6.9 mph - N/A   Clear
5:56 PM 64.0 °F - 35.1 °F 34% 30.05 in 10.0 mi WSW 5.8 mph - N/A   Clear
6:56 PM 55.0 °F - 39.9 °F 57% 30.05 in 10.0 mi Calm Calm - N/A   Clear
7:56 PM 51.1 °F - 41.0 °F 68% 30.07 in 10.0 mi Calm Calm - N/A   Clear
8:56 PM 46.0 °F - 42.1 °F 86% 30.09 in 10.0 mi Calm Calm - N/A   Clear
9:56 PM 48.9 °F - 41.0 °F 74% 30.10 in 10.0 mi Calm Calm - N/A   Clear
10:56 PM 46.0 °F - 41.0 °F 83% 30.10 in 10.0 mi Calm Calm - N/A   Clear
11:56 PM 45.0 °F 43.5 °F 42.1 °F 90% 30.11 in 10.0 mi SE 3.5 mph - N/A   Clear